Weather in Solnechny-1

Russia / Irkutsk Oblast     52°11′44″N   104°28′11″E
temp.,
°C
wind,
m/s
gust,
m/s
humid.,
%
clouds,
%
prec.,
mm/h
press.,
hPa
HPBL,
m
26 june, sun
sun2623:00+14se117735 0.0 100711
02:00+13ese008257 0.0 100810
05:00+11wsw01925 0.0 101010
08:00+18sw00625 0.0 1010330
11:00+25wnw224035 0.0 10081241
14:00+28nw243066 0.0 10062352
17:00+28n2329100 0.0 10042337
20:00+24ese114926 0.0 100414
27 june, mon
mon2723:00+18se1158100 0.0 100612
02:00+16se22605 0.0 100520
05:00+15se226049 0.0 100522
08:00+23sse24420 0.0 1004259
11:00+31s34260 0.0 10021259
14:00+34s33214 0.0 10012574
17:00+34sse34211 0.0 9992500
20:00+26s37403 0.0 1000199
28 june, tue
tue2823:00+18sse365513 0.0 1001101
02:00+14sse35662 0.0 100294
05:00+14se257121 0.0 1001103
08:00+22sse375072 0.0 1000300
11:00+28s473594 0.0 998542
14:00+34s452461 0.0 996841
17:00+33s332671 0.0 997780
20:00+27sw244880 0.0 998128
29 june, wed
wed2923:00+19w387127 0.1 1002254
02:00+17w2794100 0.1 1003290
05:00+17wnw3694100 0.1 1003452
08:00+18wnw358478 0.5 1004522
11:00+23nw3364100 0.0 1003913
14:00+23nw557199 0.3 1002961
17:00+18nw61090100 1.8 1004949
20:00+14wnw51196100 4.8 1008671
30 june, thu
thu3023:00+13w3797100 0.1 1009446
02:00+13w1499100 4.6 1008300
05:00+12wsw129945 0.0 100982
08:00+15nnw018753 0.0 1008380
11:00+23wnw115085 0.0 1006873
14:00+28nw11343 0.0 10041303
17:00+29s11292 0.0 10021519
20:00+22s36554 0.0 1002231